Weather History for Sacramento, CA

Change the Weather History Date:

Friday, May 23, 2014

  Actual Average Record
Temperature  
Mean Temperature 72 °F -  
Max Temperature 89 °F 82 °F 97 °F (1967)
Min Temperature 54 °F 52 °F 42 °F (1980)
Degree Days  
Heating Degree Days 0    
Cooling Degree Days 7    
Growing Degree Days 20 (Base 50)    
Moisture  
Dew Point 54 °F    
Average Humidity 64    
Maximum Humidity 93    
Minimum Humidity 34    
Precipitation  
Precipitation 0.00 in 0.02 in 0.48 in (1960)
Month to date precipitation T 0.54  
Year to date precipitation 7.89 11.55  
Since 1 July precipitation 9.79 18.17  
Sea Level Pressure  
Sea Level Pressure 29.91 in    
Wind  
Wind Speed 5 mph (South)    
Max Wind Speed 12 mph    
Max Gust Speed 18 mph    
Visibility 10 miles    
Events      
T = Trace of Precipitation, MM = Missing Value Source: NWS Daily Summary

Daily Weather History Graph

Daily Weather History Graph

Search for Another Location

Airport:

Trip Planner

Search our weather history database for the weather conditions in past years. The results will help you decide how hot, cold, wet, or windy it might be!

Date:

Astronomy

May. 23, 2014 Rise Set
Actual Time 5:48 AM PDT 8:17 PM PDT
Civil Twilight 5:17 AM PDT 8:48 PM PDT
Nautical Twilight 4:40 AM PDT 9:26 PM PDT
Astronomical Twilight 3:58 AM PDT 10:08 PM PDT
Moon 2:41 AM PDT (5/23) 3:19 PM PDT (5/23)
Length of Visible Light 15h 30m
Length of Day
14h 29m
Waning Crescent, 26% of the Moon is Illuminated
May 23
Waning Crescent
May 28
New
Jun 5
First Quarter
Jun 12
Full
Jun 19
Last Quarter

Hourly Weather History & Observations

Time (PDT) Temp. Heat Index Dew Point Humidity Pressure Visibility Wind Dir Wind Speed Gust Speed Precip Events Conditions
12:53 AM 63.0 °F - 53.1 °F 70% 29.95 in 10.0 mi SE 3.5 mph - N/A   Clear
1:53 AM 63.0 °F - 52.0 °F 67% 29.94 in 10.0 mi South 4.6 mph - N/A   Clear
2:53 AM 60.8 °F - 51.8 °F 72% 29.94 in 10.0 mi SSW 5.8 mph - N/A   Clear
3:53 AM 55.9 °F - 50.0 °F 80% 29.93 in 10.0 mi SSW 8.1 mph - N/A   Clear
4:53 AM 55.0 °F - 51.1 °F 86% 29.93 in 10.0 mi Calm Calm - N/A   Clear
5:53 AM 54.0 °F - 51.1 °F 90% 29.94 in 10.0 mi SSW 3.5 mph - N/A   Clear
6:53 AM 55.0 °F - 51.1 °F 86% 29.96 in 10.0 mi South 3.5 mph - N/A   Clear
7:53 AM 57.9 °F - 52.0 °F 81% 29.98 in 10.0 mi South 3.5 mph - N/A   Clear
8:53 AM 62.1 °F - 53.1 °F 72% 29.99 in 10.0 mi South 4.6 mph - N/A   Clear
9:53 AM 66.9 °F - 55.0 °F 66% 29.99 in 10.0 mi SSE 5.8 mph - N/A   Clear
10:53 AM 72.0 °F - 55.0 °F 55% 29.97 in 10.0 mi Variable 3.5 mph - N/A   Clear
11:53 AM 77.0 °F - 55.0 °F 47% 29.95 in 10.0 mi Variable 4.6 mph - N/A   Clear
12:53 PM 81.0 °F 80.8 °F 55.9 °F 42% 29.94 in 10.0 mi SSW 4.6 mph - N/A   Clear
1:53 PM 84.0 °F 83.0 °F 55.9 °F 38% 29.91 in 10.0 mi Variable 4.6 mph - N/A   Clear
2:53 PM 86.0 °F 84.7 °F 55.9 °F 36% 29.89 in 10.0 mi SW 9.2 mph - N/A   Clear
3:53 PM 87.1 °F 85.7 °F 55.9 °F 35% 29.87 in 10.0 mi SSW 8.1 mph - N/A   Clear
4:53 PM 87.1 °F 85.7 °F 55.9 °F 35% 29.84 in 10.0 mi SSW 10.4 mph - N/A   Clear
5:53 PM 86.0 °F 85.0 °F 57.9 °F 38% 29.83 in 10.0 mi South 6.9 mph - N/A   Clear
6:53 PM 82.4 °F 82.0 °F 57.2 °F 42% 29.82 in 10.0 mi SSW 5.8 mph - N/A   Clear
7:53 PM 75.9 °F - 57.0 °F 52% 29.83 in 10.0 mi South 4.6 mph - N/A   Clear
8:53 PM 72.0 °F - 55.9 °F 57% 29.85 in 10.0 mi South 3.5 mph - N/A   Clear
9:53 PM 68.0 °F - 55.4 °F 64% 29.86 in 10.0 mi South 5.8 mph - N/A   Clear
10:53 PM 66.9 °F - 55.0 °F 66% 29.87 in 10.0 mi South 5.8 mph - N/A   Clear
11:53 PM 66.0 °F - 54.0 °F 65% 29.87 in 10.0 mi South 4.6 mph - N/A   Clear